Quillayute, WA
on Thursday, November 8, 2012

Thursday
Previous Day Next Day
Daily Summary
 ActualAverageRecord
Temperature
Mean Temperature °F 46°F  
Max Temperature 52°F 52°F 60°F (1987)
Min Temperature 31°F 39°F 28°F (1979)
Degree Days
Heating Degree Days 23 19  
Month to date heating degree days 150  
Since 1 July heating degree days 1240  
Cooling Degree Days 0 0  
Month to date cooling degree days 0  
Year to date cooling degree days 19  
Moisture
Dew Point 36°F   
Average Humidity 76    
Maximum Humidity 93    
Minimum Humidity 42    
Precipitation
Precipitation T in 0.50 in 3.59 in (1989)
Month to date precipitation 3.90  
Year to date precipitation 74.93  
Wind
Wind Speed 6 mph   
Max Wind Speed 18 mph   
Max Gust Speed 24 mph   
Visibility 7 miles   
Events Rain   

Key: T is trace of precipitation, MM is missing value
Source: NWS Daily Summary
Time(PST)TemperatureDew PointHumidity Pressure Visibility Wind DirectionWind SpeedGust SpeedPrecipitationEvents Conditions
12:53 AM 43.0°F 39.9°F 89% 29.90 in 8.0 miles East 5.8 mph - 0.00 in Rain Light Rain
1:53 AM 42.1°F 39.0°F 89% 29.89 in 6.0 miles East 4.6 mph - 0.00 in Rain Light Rain
2:53 AM 39.9°F 37.9°F 93% 29.88 in 8.0 miles Calm Calm - 0.00 in   Clear
3:53 AM 41.0°F 37.9°F 89% 29.86 in 8.0 miles Calm Calm - N/A   Overcast
4:53 AM 42.1°F 37.9°F 85% 29.86 in 8.0 miles Calm Calm - N/A   Overcast
5:53 AM 41.0°F 37.9°F 89% 29.86 in 7.0 miles NE 3.5 mph - N/A   Overcast
6:53 AM 41.0°F 37.0°F 86% 29.85 in 7.0 miles NNE 4.6 mph - N/A   Partly Cloudy
7:53 AM 42.1°F 37.9°F 85% 29.85 in 6.0 miles NNE 5.8 mph - N/A   Clear
8:53 AM 45.0°F 39.9°F 82% 29.85 in 6.0 miles NE 9.2 mph - N/A   Haze
9:53 AM 46.9°F 39.0°F 74% 29.85 in 6.0 miles ENE 10.4 mph - N/A   Haze
10:53 AM 48.9°F 39.0°F 69% 29.85 in 7.0 miles NE 8.1 mph - N/A   Clear
11:53 AM 50.0°F 37.9°F 63% 29.84 in 7.0 miles NE 10.4 mph - N/A   Clear
12:53 PM 51.1°F 33.1°F 50% 29.83 in 7.0 miles ENE 13.8 mph 20.7 mph N/A   Clear
1:53 PM 51.1°F 34.0°F 52% 29.83 in 7.0 miles NNE 10.4 mph 20.7 mph N/A   Clear
2:53 PM 50.0°F 33.1°F 52% 29.83 in 7.0 miles NE 15.0 mph 23.0 mph N/A   Clear
3:53 PM 48.9°F 33.1°F 54% 29.84 in 7.0 miles NNE 10.4 mph - N/A   Clear
4:53 PM 45.0°F 34.0°F 65% 29.85 in 7.0 miles North 8.1 mph - N/A   Clear
5:53 PM 43.0°F 34.0°F 71% 29.86 in 8.0 miles North 9.2 mph - N/A   Clear
6:53 PM 41.0°F 34.0°F 76% 29.86 in 8.0 miles North 6.9 mph - N/A   Clear
7:53 PM 39.0°F 33.1°F 79% 29.86 in 7.0 miles NNE 3.5 mph - N/A   Clear
8:53 PM 36.0°F 32.0°F 86% 29.86 in 7.0 miles Calm Calm - N/A   Clear
9:53 PM 34.0°F 32.0°F 92% 29.87 in 7.0 miles Calm Calm - N/A   Clear
10:53 PM 33.1°F 30.0°F 89% 29.87 in 7.0 miles Calm Calm - N/A   Clear
11:53 PM 32.0°F 28.9°F 88% 29.87 in 6.0 miles East 3.5 mph - N/A   Clear
Moon Phase
Nov. 08 Nov. 13 Nov. 20 Nov. 28 Dec. 06
Sunrise:07:14 AM (PST) Moon Rise:12:50 AM (PST)11/8
Sunset:04:48 PM (PST) Moon Set:01:55 PM (PST)11/8

Copyright © 2014 The Weather Underground, Inc.